DW1121 Weather Reports


time (UTC)temp
C
wind
direction
speed
KPH
gust
KPH
rain 1hr
cm
rain 24hr
cm
rain mn
cm
humidity
%
barometer
mb
20260505211105 26 202 0.0 9.7 0.00 0.00 0.00 30 1013.0
20260505210105 26 193 3.2 3.2 0.00 0.00 0.00 29 1013.3
20260505205605 25 202 3.2 9.7 0.00 0.00 0.00 29 1013.3
20260505205104 25 216 4.8 9.7 0.00 0.00 0.00 29 1013.3
20260505204606 25 188 3.2 4.8 0.00 0.00 0.00 28 1013.3
20260505203105 26 215 4.8 11.3 0.00 0.00 0.00 29 1013.3
20260505202604 26 173 4.8 4.8 0.00 0.00 0.00 28 1013.3
20260505202105 25 160 4.8 9.7 0.00 0.00 0.00 29 1013.3
20260505201605 26 182 3.2 8.0 0.00 0.00 0.00 30 1013.4
20260505201104 25 180 3.2 8.0 0.00 0.00 0.00 30 1013.4
20260505200605 25 122 8.0 12.9 0.00 0.00 0.00 29 1013.4
20260505200105 25 168 4.8 8.0 0.00 0.00 0.00 30 1013.7
20260505195605 25 122 9.7 14.5 0.00 0.00 0.00 29 1013.7
20260505195105 26 128 8.0 9.7 0.00 0.00 0.00 29 1013.7
20260505194605 25 186 4.8 8.0 0.00 0.00 0.00 29 1013.7
20260505194104 25 137 4.8 8.0 0.00 0.00 0.00 30 1013.7
20260505193604 25 212 8.0 11.3 0.00 0.00 0.00 29 1013.9
20260505193105 25 178 4.8 9.7 0.00 0.00 0.00 27 1013.9
20260505192605 25 200 8.0 9.7 0.00 0.00 0.00 27 1014.0
20260505191105 25 187 0.0 0.0 0.00 0.00 0.00 26 1014.3
20260505190604 26 151 0.0 3.2 0.00 0.00 0.00 27 1014.3
20260505190105 25 174 1.6 3.2 0.00 0.00 0.00 28 1014.3
20260505185604 25 159 0.0 1.6 0.00 0.00 0.00 28 1014.3
20260505185104 25 222 0.0 3.2 0.00 0.00 0.00 29 1014.5
20260505184604 26 150 3.2 3.2 0.00 0.00 0.00 27 1014.5
20260505184104 26 204 0.0 3.2 0.00 0.00 0.00 27 1014.5
20260505183604 26 186 0.0 1.6 0.00 0.00 0.00 27 1014.6
20260505183105 25 187 1.6 4.8 0.00 0.00 0.00 27 1014.6
20260505182605 25 136 0.0 0.0 0.00 0.00 0.00 28 1014.8
20260505182105 25 220 0.0 3.2 0.00 0.00 0.00 27 1014.8
20260505181605 25 254 1.6 1.6 0.00 0.00 0.00 27 1014.8
20260505181105 25 202 0.0 3.2 0.00 0.00 0.00 27 1015.1
20260505180604 25 190 0.0 1.6 0.00 0.00 0.00 28 1015.1
20260505175604 25 198 3.2 3.2 0.00 0.00 0.00 30 1015.2
20260505175105 24 94 1.6 9.7 0.00 0.00 0.00 32 1015.3
20260505174605 25 175 1.6 4.8 0.00 0.00 0.00 33 1015.3
20260505174104 25 104 3.2 4.8 0.00 0.00 0.00 35 1015.3
20260505173605 23 203 3.2 8.0 0.00 0.00 0.00 35 1015.6
20260505173105 24 207 4.8 12.9 0.00 0.00 0.00 37 1015.6
20260505172605 24 212 1.6 3.2 0.00 0.00 0.00 37 1015.7
20260505172105 24 4 0.0 3.2 0.00 0.00 0.00 36 1015.7
20260505171605 23 214 1.6 3.2 0.00 0.00 0.00 37 1015.7
20260505171105 24 171 3.2 4.8 0.00 0.00 0.00 36 1015.7
20260505170605 24 205 1.6 4.8 0.00 0.00 0.00 35 1015.7
20260505170105 24 214 0.0 1.6 0.00 0.00 0.00 35 1015.8
20260505165604 24 189 3.2 4.8 0.00 0.00 0.00 36 1015.8
20260505165104 25 251 0.0 1.6 0.00 0.00 0.00 35 1016.1
20260505164105 23 202 8.0 11.3 0.00 0.00 0.00 36 1016.1
20260505163105 24 270 4.8 9.7 0.00 0.00 0.00 37 1016.2
20260505162104 23 254 1.6 8.0 0.00 0.00 0.00 37 1016.0
20260505161605 23 141 1.6 9.7 0.00 0.00 0.00 38 1016.0
20260505161105 22 258 0.0 9.7 0.00 0.00 0.00 37 1016.0
20260505160606 22 221 1.6 3.2 0.00 0.00 0.00 39 1016.0
20260505160105 22 180 1.6 4.8 0.00 0.00 0.00 39 1015.9
20260505153105 22 154 1.6 3.2 0.00 0.00 0.00 42 1016.2
20260505152605 22 22 0.0 8.0 0.00 0.00 0.00 45 1016.5
20260505152105 22 31 3.2 4.8 0.00 0.00 0.00 48 1016.5
20260505151604 22 55 1.6 1.6 0.00 0.00 0.00 49 1016.5
20260505151105 21 52 1.6 3.2 0.00 0.00 0.00 47 1016.3
20260505150605 20 180 1.6 3.2 0.00 0.00 0.00 48 1016.3
20260505140104 16 168 1.6 3.2 0.00 0.00 0.00 65 1016.6
20260505130105 11 144 0.0 0.0 0.00 0.00 0.00 83 1016.1
20260505124605 10 158 0.0 0.0 0.00 0.00 0.00 87 1015.9
20260505124105 10 156 0.0 0.0 0.00 0.00 0.00 89 1015.9
20260505123605 10 160 0.0 1.6 0.00 0.00 0.00 89 1016.0
20260505123105 9 97 0.0 1.6 0.00 0.00 0.00 89 1016.0
20260505122604 9 158 0.0 0.0 0.00 0.00 0.00 89 1015.8
20260505122105 8 158 0.0 0.0 0.00 0.00 0.00 89 1015.8
20260505120604 8 180 0.0 0.0 0.00 0.00 0.00 89 1015.8
20260505120105 8 202 0.0 0.0 0.00 0.00 0.00 89 1015.7
20260505115604 8 180 0.0 0.0 0.00 0.00 0.00 89 1015.7
20260505115106 7 118 0.0 0.0 0.00 0.00 0.00 89 1015.4
20260505114605 7 181 0.0 0.0 0.00 0.00 0.00 89 1015.4
20260505113606 7 169 0.0 0.0 0.00 0.00 0.00 89 1015.4
20260505113105 7 84 0.0 0.0 0.00 0.00 0.00 89 1015.4
20260505112605 7 86 0.0 0.0 0.00 0.00 0.00 89 1015.2
20260505112104 7 178 0.0 0.0 0.00 0.00 0.00 89 1015.2
20260505111605 7 132 0.0 0.0 0.00 0.00 0.00 89 1015.2
20260505111105 7 163 0.0 0.0 0.00 0.00 0.00 89 1015.2
20260505110104 7 180 0.0 0.0 0.00 0.00 0.00 89 1015.0
20260505102105 7 131 0.0 0.0 0.00 0.00 0.00 89 1015.2
20260505101606 7 108 0.0 0.0 0.00 0.00 0.00 89 1015.2
20260505101105 7 141 0.0 0.0 0.00 0.00 0.00 89 1015.2
20260505100606 7 133 0.0 0.0 0.00 0.00 0.00 89 1015.2
20260505095605 22 91 0.0 1.6 0.00 0.00 0.00 38 1015.1
20260504232603 22 194 0.0 1.6 0.00 0.00 0.00 37 1013.8
20260504232104 22 192 1.6 3.2 0.00 0.00 0.00 37 1013.8
20260504231104 23 206 0.0 1.6 0.00 0.00 0.00 36 1013.7
20260504230104 23 202 0.0 1.6 0.00 0.00 0.00 34 1013.8
20260504225604 23 215 1.6 1.6 0.00 0.00 0.00 33 1013.8
20260504225103 23 206 1.6 3.2 0.00 0.00 0.00 33 1013.7
20260504224603 23 225 1.6 3.2 0.00 0.00 0.00 32 1013.7
20260504224105 23 213 0.0 1.6 0.00 0.00 0.00 31 1013.7
20260504223103 23 217 3.2 4.8 0.00 0.00 0.00 30 1013.8
20260504222603 23 273 1.6 8.0 0.00 0.00 0.00 29 1013.8
20260504222104 23 192 1.6 3.2 0.00 0.00 0.00 28 1013.8
20260504221604 23 202 1.6 3.2 0.00 0.00 0.00 28 1013.8
20260504221103 24 253 4.8 8.0 0.00 0.00 0.00 29 1013.8
20260504220603 24 145 4.8 8.0 0.00 0.00 0.00 30 1013.8
20260504220105 24 216 1.6 8.0 0.00 0.00 0.00 28 1013.7
20260504215103 25 190 3.2 4.8 0.00 0.00 0.00 29 1013.5
20260504214603 25 232 1.6 4.8 0.00 0.00 0.00 29 1013.5
20260504214104 25 195 1.6 3.2 0.00 0.00 0.00 31 1013.5
20260504213603 25 331 3.2 3.2 0.00 0.00 0.00 31 1013.5
20260504213103 25 191 3.2 4.8 0.00 0.00 0.00 34 1013.5
20260504212604 25 188 6.4 9.7 0.00 0.00 0.00 32 1013.5